Theta_e
327 327 326 326 326 326 324 323 320 316 315 315 314 314 314 314 313 312 314 312 310 312 311 309 309 308 307 306 305 304 305 305 306 306 306 307 307 307 308 308 307 307 307 307 306 306 306 306 306 305 305 305 305 305 304 302 302 303 303 302 301 301 301 301 300 300 299 299 299 298 298 298 297 297
321 320 319 319 322 323 323 324 322 316 313 314 314 314 314 313 313 313 315 314 311 311 311 309 308 308 306 306 305 305 305 305 306 306 306 306 306 307 308 308 307 307 307 307 306 306 305 306 306 305 305 305 305 305 304 302 302 303 303 303 302 302 302 302 301 301 301 300 299 299 298 298 297 297
316 315 315 315 315 317 318 319 321 318 314 313 314 315 315 313 312 311 312 313 311 310 310 309 307 307 307 306 306 306 305 305 305 305 305 305 306 306 307 308 308 307 306 306 306 305 305 305 306 305 305 305 305 304 303 302 302 303 303 303 303 302 302 302 302 302 301 300 300 299 298 298 298 297
315 315 315 315 315 316 316 316 320 322 316 313 314 315 315 313 312 311 310 311 310 310 310 309 307 307 307 307 307 306 306 305 305 305 305 305 305 306 307 307 307 307 306 306 306 305 305 305 305 305 305 305 304 303 302 302 303 303 303 303 303 302 302 302 303 302 302 301 300 299 299 298 298 298
316 315 315 315 315 316 317 317 320 322 317 313 313 314 313 312 310 309 309 308 309 310 310 309 308 307 307 307 307 307 307 306 306 306 305 305 305 306 307 307 307 307 306 305 305 305 305 305 305 305 305 303 302 302 302 303 303 303 303 303 303 303 302 302 302 302 302 301 300 299 299 299 299 298
315 316 315 316 316 316 318 318 320 320 316 314 313 313 312 311 309 308 308 308 309 309 309 309 308 307 307 307 307 308 308 307 307 307 307 306 305 306 308 308 307 307 306 305 305 305 305 305 305 305 303 302 302 302 303 303 303 303 302 303 303 303 302 302 302 302 302 301 300 299 299 299 299 299
314 316 315 315 316 315 316 316 317 317 316 315 314 313 312 311 309 308 307 308 309 308 308 308 307 307 307 307 307 307 307 307 307 308 308 308 306 306 308 308 307 307 306 305 304 305 305 305 304 303 302 302 302 302 303 303 303 302 302 302 302 302 302 302 301 301 302 301 300 299 299 299 299 298
314 315 315 315 315 315 315 315 315 315 315 315 315 314 313 312 310 308 308 308 309 308 308 307 307 307 307 307 307 307 307 307 307 307 308 308 307 306 308 308 307 307 305 305 305 305 305 305 303 302 301 301 301 301 302 302 303 302 302 302 301 301 301 301 301 301 301 301 301 300 299 298 298 298
315 315 315 315 315 314 314 314 314 315 315 315 315 314 313 312 310 309 308 309 310 309 309 308 308 307 307 307 307 307 307 306 306 307 308 308 307 307 308 308 307 307 306 305 305 305 305 303 302 302 301 301 301 301 301 302 302 302 302 302 301 301 301 301 301 301 301 301 301 300 299 298 298 298
315 315 315 315 314 314 314 314 314 314 314 315 315 314 313 311 310 310 310 310 311 311 310 309 307 307 308 308 308 308 308 307 306 308 309 308 308 308 308 308 307 307 306 306 306 305 304 303 302 302 301 301 301 301 301 301 302 302 302 302 301 301 301 301 301 300 300 300 300 300 299 298 298 298
315 315 315 314 314 314 314 314 314 314 314 314 315 315 314 313 313 313 312 312 312 312 311 309 308 308 308 308 308 309 310 308 306 308 309 309 309 308 308 308 307 307 306 306 305 304 303 302 302 301 301 301 300 300 301 301 301 301 301 301 301 300 300 300 300 300 300 300 300 299 299 299 298 298
315 315 315 314 314 314 314 314 314 314 314 314 315 315 314 314 314 314 314 313 313 312 311 310 309 308 308 308 309 309 310 309 307 308 309 309 309 308 308 307 306 306 306 305 304 303 303 302 301 301 301 300 300 300 300 300 300 300 300 300 300 299 299 299 299 299 299 299 299 299 299 299 298 298
315 315 314 314 313 313 313 313 314 314 313 314 314 314 314 314 314 314 314 313 313 312 312 310 310 309 309 309 309 309 310 310 309 308 309 309 309 308 307 307 306 306 305 304 303 302 302 301 301 300 300 300 300 300 299 299 299 299 298 298 298 298 298 298 299 299 299 299 299 299 299 298 298 298
314 313 313 312 312 312 312 312 312 313 314 314 314 314 314 314 314 314 314 314 313 313 313 312 311 311 310 310 310 310 311 312 310 309 309 310 308 307 307 307 306 306 304 303 301 301 300 300 300 300 300 299 299 299 298 298 298 297 297 297 297 297 297 297 298 298 298 298 298 298 297 297 297 297
313 313 312 312 313 313 313 314 313 314 314 315 315 315 314 314 314 314 314 314 314 314 314 313 313 312 311 311 312 312 312 312 310 309 310 310 308 307 307 306 305 304 303 302 300 300 300 300 299 300 299 298 298 297 297 297 296 296 296 296 296 296 296 296 297 297 297 297 297 296 296 296 297 297
314 313 313 313 314 314 315 316 316 316 316 316 316 316 316 315 314 314 314 314 314 314 314 314 313 313 312 313 313 313 313 312 311 310 310 309 308 307 306 305 303 301 301 301 299 299 299 299 299 299 298 297 297 297 296 296 296 296 296 296 296 296 296 296 296 296 296 296 296 296 296 296 296 296
315 314 313 313 314 315 315 316 316 316 317 317 317 317 317 316 316 315 315 315 315 314 314 314 314 314 313 313 313 313 313 312 311 309 308 308 307 306 304 303 301 300 300 300 299 298 299 299 299 298 297 297 296 296 296 296 296 296 296 296 296 295 295 295 295 295 294 294 295 295 295 295 296 296
315 315 315 314 315 316 316 316 316 317 317 317 317 317 317 316 316 316 316 316 316 315 315 314 314 314 314 314 313 313 312 312 311 310 308 307 305 304 302 301 299 299 299 299 298 298 299 298 298 297 297 297 296 296 296 296 296 295 295 295 295 294 294 294 293 293 293 294 294 294 295 295 295 295
315 315 315 315 316 316 317 317 317 317 317 317 317 317 317 316 316 316 316 316 315 315 314 315 314 314 314 314 313 312 311 310 309 308 307 305 304 303 301 299 299 299 299 298 298 298 298 297 297 297 297 296 296 296 295 295 295 295 295 294 294 293 293 293 293 293 293 293 294 294 294 294 294 294
316 316 316 317 316 317 318 318 318 318 318 317 317 316 316 316 316 316 316 315 315 315 314 313 313 313 314 313 313 311 309 307 307 306 304 303 302 301 300 299 298 298 298 298 298 297 297 296 296 296 296 295 295 295 295 295 295 295 294 294 293 293 293 293 293 293 293 293 293 294 294 294 294 294
315 316 317 318 318 318 319 319 319 319 318 317 316 315 316 316 316 315 315 315 315 314 313 311 310 311 312 312 310 309 307 305 305 304 303 302 301 300 299 298 298 298 298 298 297 297 296 296 295 295 295 295 295 295 295 295 295 294 293 293 293 293 293 293 293 293 293 293 293 294 294 293 293 294
317 316 317 318 319 319 319 319 319 319 318 318 317 316 316 315 315 315 315 315 314 313 312 310 309 309 310 309 307 305 304 303 303 303 302 301 300 299 299 299 299 297 297 297 296 296 295 295 294 294 294 294 294 294 294 294 294 293 293 293 293 293 293 293 293 293 293 293 293 293 293 293 294 293
319 318 318 319 320 320 319 318 318 318 318 318 317 316 316 315 315 316 315 313 313 312 311 310 308 308 307 306 304 303 302 301 301 301 301 300 300 299 299 299 298 297 296 296 295 295 295 294 294 294 294 293 294 294 294 293 293 293 293 293 293 293 293 293 293 293 293 293 293 293 293 293 293 293
319 319 319 319 319 320 319 319 319 318 318 317 315 315 315 315 316 315 313 311 311 311 310 308 306 305 304 303 302 301 301 301 301 301 300 300 299 299 299 298 298 297 296 295 294 294 294 294 294 293 293 293 293 293 293 293 293 293 293 293 293 293 293 293 293 293 293 293 293 293 293 293 293 293
318 318 319 318 318 319 319 319 319 318 318 318 315 313 314 314 314 314 312 311 311 310 308 306 304 303 302 302 301 301 301 301 301 301 300 299 298 298 298 297 296 296 295 294 294 294 294 293 293 293 293 293 293 293 292 292 293 293 292 292 293 293 293 293 293 293 293 293 293 293 293 293 293 293
317 318 318 317 316 317 318 318 318 318 318 318 315 312 312 313 313 313 312 311 310 308 305 304 303 302 302 302 302 302 301 301 301 300 299 298 297 297 297 296 296 295 294 294 293 293 293 293 293 292 292 292 292 292 292 292 292 292 292 292 292 292 292 292 293 293 293 293 293 293 293 293 292 292
314 316 317 317 316 316 317 317 317 317 317 317 315 313 312 313 313 312 311 310 309 305 303 303 303 303 303 302 302 301 300 299 299 298 297 297 297 296 296 295 295 294 294 293 293 293 293 292 292 292 292 292 292 292 292 292 292 292 292 292 292 292 292 293 293 293 293 293 293 293 292 292 292 292
310 312 313 315 316 316 316 316 316 316 315 316 316 314 313 313 313 311 311 310 306 303 302 303 303 303 302 301 300 300 299 298 297 297 296 296 295 295 295 294 294 293 293 293 292 292 292 292 291 291 291 291 291 291 291 291 291 291 292 292 292 292 292 292 292 293 293 292 292 292 292 292 292 292
307 309 311 313 314 314 314 315 315 315 314 314 314 314 313 312 312 311 310 307 303 302 303 303 302 301 300 300 299 298 297 297 296 296 295 295 294 294 293 293 293 292 292 292 291 291 291 291 291 290 290 291 291 291 291 291 291 291 291 292 292 292 292 292 292 292 292 292 292 292 292 292 292 291
305 307 310 312 313 313 313 314 315 314 314 314 313 312 311 310 310 311 309 304 302 302 303 301 300 300 299 298 298 297 296 295 295 295 294 294 293 293 293 292 292 291 291 291 290 290 290 290 290 290 290 290 290 290 291 290 291 291 291 291 292 292 292 292 292 292 292 292 292 292 292 292 292 291
304 305 308 311 312 311 311 311 313 313 313 313 312 311 309 309 310 310 307 303 302 302 301 300 299 298 297 297 296 295 295 295 294 294 294 293 293 292 292 291 291 290 290 290 290 290 289 289 289 290 290 290 290 290 291 290 291 291 291 291 291 291 291 291 291 291 292 292 292 292 292 292 292 292
303 304 305 308 309 310 309 309 310 310 310 310 310 309 308 309 309 307 304 303 302 301 300 299 298 297 296 296 295 294 294 294 293 293 293 292 292 291 291 291 290 290 290 290 289 289 289 289 290 290 290 290 290 290 290 291 291 291 291 291 291 291 291 291 291 292 292 292 292 292 292 292 292 292
302 302 303 304 305 306 307 307 308 308 308 307 307 307 307 308 306 303 302 302 301 299 299 298 297 296 295 295 294 294 294 293 293 292 292 292 291 291 291 290 290 290 289 289 289 289 289 290 290 290 290 290 290 290 290 291 291 291 291 291 291 291 291 291 291 291 292 292 292 292 292 292 292 292
301 301 302 302 302 302 302 301 301 303 304 304 304 304 304 304 303 302 302 301 300 299 298 297 296 295 295 294 294 293 293 292 292 292 291 291 291 291 290 290 290 289 289 289 289 289 289 290 290 291 291 291 290 290 291 291 291 291 290 290 290 290 291 291 291 291 292 292 292 292 292 292 292 291
301 301 301 301 301 300 298 297 296 297 298 299 300 301 301 301 302 302 301 300 299 298 297 296 295 295 294 294 293 293 293 292 292 292 291 291 291 291 290 290 289 289 289 289 289 290 290 290 290 291 291 290 290 290 290 290 290 290 290 290 290 290 291 291 291 292 292 292 292 291 291 291 291 290
300 301 300 300 299 298 297 296 295 295 295 295 296 297 299 300 301 301 300 298 298 297 296 295 295 294 294 293 293 293 292 292 292 291 291 291 291 290 290 289 289 289 289 289 290 290 290 290 290 290 290 290 290 290 290 290 290 290 290 290 290 291 291 291 291 292 292 292 292 291 290 290 290 290
300 300 299 298 298 297 296 295 295 294 295 294 293 294 295 296 297 298 298 297 296 296 295 294 294 294 293 293 293 292 292 292 292 291 291 291 290 290 289 289 289 289 289 290 290 290 290 290 290 290 289 289 290 290 290 290 290 290 290 290 290 291 291 291 291 292 292 291 291 291 290 289 289 289
300 300 299 297 296 296 296 296 295 295 295 295 294 295 295 295 296 296 296 295 295 294 294 294 294 293 293 293 292 292 292 292 291 291 291 290 290 289 289 289 289 290 290 290 290 290 290 290 290 290 289 289 289 290 290 290 290 291 290 290 290 291 291 291 291 291 291 291 291 290 290 289 289 289
300 300 299 298 296 296 296 296 296 296 296 295 296 296 296 295 295 295 294 294 294 294 293 293 293 293 293 292 292 292 292 291 291 291 290 290 289 289 289 289 289 289 289 289 290 291 291 290 290 290 290 289 289 290 290 289 290 291 291 291 291 291 291 291 290 290 290 290 290 290 290 290 289 289
299 299 299 298 296 296 295 295 295 296 296 296 296 296 296 295 294 294 294 294 294 294 293 293 293 293 293 292 292 292 292 291 291 290 290 289 289 289 289 289 289 289 289 289 290 290 291 291 290 290 290 290 290 290 290 290 290 290 291 291 291 291 291 291 290 290 290 290 290 290 290 289 289 289
299 299 299 298 297 296 295 295 295 296 296 297 297 296 296 295 295 294 294 295 294 293 293 293 293 293 292 292 292 292 291 291 290 290 289 289 289 289 289 289 289 289 289 289 290 290 291 291 291 291 291 291 291 291 291 290 290 290 291 291 291 291 292 291 290 290 290 289 289 289 289 288 288 288
298 298 297 297 297 296 295 294 295 296 296 296 296 296 295 295 295 294 294 294 293 293 293 293 293 292 292 292 292 291 291 290 289 289 289 289 289 289 289 289 289 289 289 290 290 290 291 291 291 291 291 291 291 291 290 290 290 290 291 292 292 292 292 292 291 290 289 289 289 289 288 288 287 287
297 297 297 297 296 296 295 295 295 296 296 295 295 295 295 294 294 294 293 293 293 293 292 292 292 292 292 292 291 290 290 289 289 289 289 289 289 289 289 289 289 289 290 290 290 291 291 291 291 291 291 291 291 290 290 290 290 290 291 291 292 292 292 292 291 290 289 289 289 288 288 288 287 286
297 296 296 296 296 295 295 295 296 296 296 296 295 294 294 294 294 293 293 293 293 292 292 292 292 292 292 291 290 290 289 289 289 289 289 289 289 289 289 289 289 289 290 290 291 291 291 291 291 291 291 291 291 291 290 290 290 290 290 290 291 292 292 291 291 290 289 289 289 289 289 289 288 287
296 296 296 296 295 295 295 296 296 296 296 295 294 293 293 293 293 293 293 293 292 292 292 292 292 291 291 290 290 289 289 289 289 289 289 289 289 289 289 289 289 289 289 290 291 291 291 291 292 291 291 291 291 291 291 291 290 290 290 290 291 292 292 291 291 290 289 289 289 289 289 289 289 288
Wind_Speed
10 11 12 12 15 16 16 16 14 18 25 27 25 24 22 18 10 3 2 4 5 9 9 6 7 7 7 8 10 12 12 13 14 13 12 12 12 12 12 12 12 11 11 12 13 13 15 16 17 18 19 20 22 24 25 22 17 16 16 16 16 16 17 18 18 17 18 18 18 18 18 17 16 14
11 11 12 12 15 18 19 18 16 19 24 26 25 22 20 19 16 10 6 5 8 13 12 8 7 8 9 9 9 11 11 11 12 11 10 9 9 10 10 10 10 9 8 9 9 10 12 13 15 15 16 17 19 21 24 22 16 13 13 14 14 15 16 17 18 19 19 20 20 21 20 19 18 17
13 11 11 11 14 17 19 20 19 21 23 24 24 23 20 19 18 17 12 5 9 16 14 10 10 9 9 9 10 11 11 10 9 8 7 6 6 6 7 7 7 7 6 6 6 7 9 10 12 12 13 15 17 20 21 19 14 11 11 11 11 12 14 15 17 19 20 21 22 23 23 22 21 19
14 13 11 9 11 13 17 21 23 23 23 24 24 22 22 21 17 17 16 9 9 16 15 11 11 11 10 10 10 11 10 9 8 7 6 4 4 4 4 5 4 4 4 4 4 4 6 7 8 10 12 15 17 17 17 15 12 10 9 8 8 9 11 13 15 16 18 19 22 23 24 23 23 23
14 15 14 11 10 12 16 21 24 24 23 23 24 22 22 23 19 17 16 11 10 14 15 13 12 12 12 10 10 10 10 9 8 7 6 5 5 4 3 4 3 3 2 3 3 2 3 5 5 8 12 15 15 15 13 12 11 10 9 8 7 7 8 10 12 13 14 16 19 21 22 22 23 24
14 16 16 15 14 13 15 18 19 21 21 21 23 24 24 25 21 18 16 12 12 14 16 15 15 15 14 12 11 10 9 8 8 7 6 7 6 6 5 5 4 3 2 1 1 0 1 2 5 10 13 13 12 11 10 9 9 10 9 7 6 7 8 9 11 12 12 13 16 18 19 20 21 22
13 15 17 18 17 16 16 16 16 16 16 16 19 23 26 27 24 20 17 13 13 16 17 17 17 17 16 14 12 11 10 9 7 6 6 7 7 8 8 7 5 3 2 1 1 2 2 2 7 11 11 9 8 8 8 8 7 8 8 7 7 7 7 8 10 11 12 12 14 15 16 17 18 20
14 15 16 16 16 16 16 16 15 14 13 13 14 17 22 25 25 22 19 15 14 17 18 18 18 17 15 14 13 13 13 12 10 9 8 7 9 10 10 8 5 4 3 3 2 2 2 6 9 8 7 6 6 7 7 7 6 6 6 7 6 6 6 7 9 10 11 11 12 14 15 15 15 16
13 14 14 14 14 14 14 14 14 13 12 11 11 13 16 20 22 21 19 16 16 17 19 19 18 17 16 15 14 14 15 14 13 11 9 8 11 12 11 8 7 6 6 5 4 3 5 7 6 5 5 6 7 8 9 8 7 7 8 7 7 6 6 6 7 8 9 11 12 13 14 14 13 13
12 12 13 13 12 12 12 12 12 12 12 11 11 12 13 16 19 19 18 17 16 16 18 19 19 19 18 16 14 13 14 15 14 12 10 9 12 13 11 9 8 7 7 6 2 4 6 5 4 5 7 8 9 10 10 9 9 9 10 9 9 8 7 6 6 5 7 9 11 12 13 13 12 12
11 11 12 12 11 11 11 12 12 12 12 13 13 13 14 15 17 17 17 18 17 16 16 18 19 19 19 17 14 11 11 13 14 13 13 13 13 13 11 9 9 8 7 4 1 4 4 4 5 7 8 9 9 9 9 9 9 10 10 10 10 9 9 8 8 8 8 9 10 11 12 12 13 12
13 13 13 12 12 12 11 11 12 12 12 13 15 16 15 15 16 17 18 19 18 17 17 19 19 18 18 17 15 12 10 13 15 16 16 15 15 13 11 10 10 8 5 2 4 5 5 6 7 7 8 8 8 8 8 9 9 10 11 11 12 12 12 12 12 12 12 13 13 14 14 14 14 13
15 15 15 14 14 14 14 13 13 13 12 13 15 17 17 17 17 18 19 21 20 18 18 19 19 17 17 17 16 15 13 14 15 17 16 15 16 15 12 12 10 7 4 3 5 6 6 7 7 6 7 7 7 8 8 10 11 13 14 15 15 15 15 14 14 14 15 15 15 15 14 14 13 13
17 16 16 16 15 15 15 16 16 15 14 14 14 16 17 18 19 20 20 21 20 19 19 20 19 18 18 18 17 17 16 15 15 17 17 16 16 15 12 11 9 7 5 5 6 6 6 6 6 6 6 7 8 9 10 11 13 14 15 16 16 14 14 13 13 13 13 13 13 12 12 12 12 12
19 19 18 17 16 16 15 15 16 16 16 15 14 14 15 17 18 20 21 21 20 19 19 19 19 19 20 19 17 16 16 16 16 17 18 18 17 15 12 9 7 6 6 6 6 5 4 3 5 5 7 8 9 9 10 12 14 16 16 16 14 13 12 11 11 12 12 12 11 11 12 13 13 14
20 21 22 20 18 18 17 17 17 17 17 17 16 15 15 16 17 18 19 20 20 20 19 19 19 20 20 19 18 17 16 17 17 16 16 17 16 14 11 8 6 5 5 5 5 3 2 2 4 5 6 8 9 10 12 13 14 15 15 14 14 14 14 15 16 16 16 15 15 14 15 15 16 17
22 22 23 23 22 21 20 20 20 20 20 20 19 18 18 18 18 19 19 19 19 19 19 19 20 21 20 19 19 18 17 17 18 18 17 16 14 11 8 7 6 4 3 3 4 3 3 4 5 5 6 8 10 12 13 14 14 14 13 14 15 17 19 20 20 20 19 17 16 16 16 16 17 17
26 25 26 26 26 25 24 24 24 24 25 24 23 22 22 21 21 20 20 20 20 20 20 20 21 21 20 19 18 17 17 17 18 19 18 15 12 9 6 5 5 3 1 1 2 4 5 4 5 6 7 9 12 13 13 12 12 12 14 16 18 20 19 19 19 18 17 15 14 14 14 13 13 14
29 29 29 29 29 28 27 27 27 27 28 27 26 24 23 22 21 21 22 22 21 20 20 21 22 22 21 20 18 17 17 17 16 16 15 12 9 8 7 5 4 3 2 1 2 4 5 5 6 8 9 11 13 13 12 11 11 12 16 18 18 17 16 16 16 15 14 13 13 12 11 10 10 11
31 32 32 32 31 31 30 29 29 29 29 27 25 23 23 23 23 23 24 22 19 19 20 20 20 19 19 19 17 16 17 16 14 13 11 9 8 8 8 7 5 3 2 2 2 2 3 5 7 9 11 13 13 11 10 10 11 14 18 18 15 14 15 15 15 14 12 11 10 9 8 8 10 11
32 32 32 32 32 31 31 31 30 31 29 27 24 24 25 27 28 27 26 23 21 21 19 16 14 13 13 14 15 16 15 13 12 10 10 10 9 9 9 7 6 4 3 2 1 2 4 5 7 10 12 13 13 11 9 10 13 16 17 14 13 14 15 15 14 12 11 10 9 8 8 9 11 12
28 30 30 30 31 32 31 30 30 30 30 29 28 27 26 28 29 28 25 22 21 20 17 14 13 12 12 14 15 15 13 10 9 7 8 10 11 10 9 7 6 5 5 4 2 3 4 4 7 11 13 14 13 9 8 12 16 16 14 12 13 15 15 14 13 12 10 10 10 10 10 11 13 14
25 27 28 29 30 31 30 28 29 30 32 32 31 29 28 28 28 27 24 21 18 16 15 16 16 16 16 16 15 13 11 9 8 6 6 8 10 9 8 7 6 5 5 4 2 4 4 4 8 11 11 10 9 8 10 15 17 14 12 13 15 15 15 14 13 11 10 10 11 11 11 12 15 17
25 26 28 29 30 31 30 29 29 31 32 33 31 29 29 29 29 26 23 19 16 14 15 17 19 19 17 15 13 12 11 10 9 8 7 7 7 7 6 6 5 4 4 3 2 4 4 5 8 9 8 6 7 10 14 17 16 13 12 14 16 16 15 15 13 11 10 11 12 12 12 13 16 18
28 28 28 29 29 31 32 32 32 31 32 33 31 29 30 31 29 23 20 20 18 15 16 20 20 18 16 14 12 12 11 11 10 9 8 8 7 6 5 5 5 5 4 2 3 5 5 6 7 9 8 7 8 12 15 16 15 13 13 15 16 16 15 14 13 11 10 11 12 12 13 15 16 17
30 31 31 30 30 30 32 32 33 32 31 31 31 29 28 28 26 21 20 21 19 17 20 22 21 19 17 15 14 13 12 12 11 10 8 7 6 5 4 3 3 3 3 1 4 6 7 7 7 7 7 8 10 12 14 15 15 14 15 16 17 16 15 13 12 11 11 11 12 13 15 16 17 18
29 31 32 33 32 33 32 31 31 32 31 30 29 27 25 25 24 22 22 22 21 21 24 24 22 20 18 17 16 16 15 14 12 10 9 7 6 4 3 2 1 0 0 2 5 7 7 6 5 6 7 8 10 11 12 14 15 16 17 18 18 16 13 12 12 12 12 13 13 15 16 17 18 18
26 29 31 32 33 35 34 30 29 30 31 30 29 28 26 25 25 24 23 23 25 27 27 25 22 21 19 19 18 17 16 15 13 11 10 8 6 4 3 2 1 1 2 3 5 6 5 5 6 7 8 8 9 10 11 14 16 17 18 19 18 15 12 12 13 14 15 16 16 17 19 19 19 18
22 24 27 29 31 33 32 29 27 28 29 30 30 29 28 27 27 26 24 26 30 30 28 25 23 22 20 19 19 17 16 15 14 12 11 8 5 4 2 2 2 2 2 3 3 4 4 5 7 8 9 9 10 11 12 14 16 17 16 17 18 15 13 13 15 16 18 19 19 19 19 18 18 17
21 21 22 24 27 30 30 28 28 28 28 28 29 28 27 27 28 27 27 32 33 30 27 26 24 23 22 20 19 19 18 16 13 11 9 7 6 3 2 2 2 2 2 2 3 4 5 6 7 9 9 9 10 12 12 13 16 17 15 14 15 15 15 16 17 18 18 19 18 18 17 16 15 15
24 22 20 21 23 26 27 27 28 28 27 27 27 26 24 26 29 30 32 35 33 29 27 27 25 24 23 22 21 20 18 15 12 8 6 5 4 3 2 3 3 3 3 2 4 6 6 5 6 8 9 10 11 12 12 12 14 15 13 11 13 16 18 19 18 16 16 17 17 16 16 16 15 14
26 24 21 20 21 23 23 23 24 26 26 26 26 25 25 27 29 31 33 33 31 29 29 28 26 26 24 23 21 18 15 12 10 7 5 4 5 4 4 5 5 4 4 6 7 5 3 4 6 7 8 9 10 11 11 11 10 11 12 13 15 17 18 17 16 15 14 16 17 17 17 16 16 15
24 22 20 19 18 18 19 21 23 25 25 24 23 24 27 29 31 33 35 33 30 30 29 28 28 26 24 22 19 16 13 11 10 7 5 5 5 5 5 7 6 5 7 9 8 5 4 6 7 7 7 8 9 9 9 9 8 10 12 15 18 18 17 15 14 14 15 17 18 19 19 18 18 18
20 18 17 16 15 15 17 19 21 23 24 25 26 27 29 32 34 35 34 32 31 30 29 28 27 26 24 22 18 14 13 12 10 8 6 5 5 5 6 6 6 6 7 8 8 7 7 9 9 8 8 9 10 9 6 6 10 13 14 15 17 18 16 14 13 14 15 16 18 21 22 23 22 21
16 16 15 15 15 15 16 16 16 17 17 20 26 30 32 33 35 35 33 32 31 30 28 27 26 24 22 19 16 13 12 12 10 7 5 4 4 5 5 6 6 6 6 7 8 9 9 10 11 11 11 12 14 12 8 8 13 16 16 15 16 16 15 14 13 13 14 15 17 19 22 25 26 22
15 16 15 15 16 15 16 15 14 14 13 13 19 26 32 34 35 35 34 32 31 29 27 26 24 22 19 17 15 13 11 10 9 7 5 5 4 4 5 6 5 4 5 7 9 9 9 10 11 12 12 12 11 10 10 14 16 15 15 16 16 16 15 14 13 13 14 15 17 19 21 24 23 19
15 16 15 16 16 17 17 15 12 10 8 8 10 16 23 28 32 33 33 31 29 27 25 23 21 20 18 16 14 12 10 8 7 6 5 4 3 4 5 5 4 4 6 8 8 9 9 10 12 12 10 8 4 4 11 19 19 15 14 17 18 16 14 14 14 14 15 16 18 20 21 20 17 14
14 16 17 17 16 16 18 17 14 11 9 9 12 15 18 23 28 30 30 28 27 25 22 21 20 19 16 13 12 10 8 6 5 4 4 3 3 4 4 4 4 5 7 8 9 10 10 11 13 12 10 7 3 3 10 18 21 19 17 16 16 14 12 13 14 15 15 16 18 20 19 14 10 11
13 15 17 18 17 16 17 17 17 18 19 21 22 23 24 25 27 27 27 26 23 21 19 18 18 16 13 11 9 8 6 5 5 5 4 3 3 3 2 3 5 6 7 9 10 11 11 12 13 13 11 10 8 8 10 15 20 21 17 11 10 11 11 12 13 13 14 16 18 19 15 9 6 10
13 15 17 18 17 16 17 18 19 23 27 28 27 27 27 28 27 26 25 22 18 17 17 17 15 13 11 10 8 7 7 6 5 4 4 4 3 3 2 3 4 5 7 10 11 12 13 13 12 11 12 10 9 10 11 13 17 19 14 6 6 10 11 10 11 11 12 15 17 17 15 11 9 12
14 15 17 18 17 17 17 20 24 28 30 30 29 28 29 28 27 24 21 18 16 17 18 16 13 11 11 10 9 8 7 7 5 4 5 5 4 2 1 2 3 4 6 9 11 12 13 12 11 11 11 10 9 9 9 9 14 17 13 6 6 10 11 9 9 9 11 13 14 14 15 14 12 14
15 16 17 17 17 18 19 22 26 29 30 30 31 31 29 27 25 22 19 18 18 18 17 15 13 13 12 11 9 7 7 7 6 7 7 6 4 2 0 2 3 3 5 8 10 11 11 10 10 11 11 11 10 9 8 8 12 16 13 7 7 10 11 9 8 7 8 9 10 11 13 13 11 13
13 15 16 17 18 18 19 22 25 27 28 29 29 28 28 26 23 21 20 20 19 17 15 15 15 14 12 10 8 7 7 8 8 9 8 5 2 1 1 2 2 4 7 9 10 11 10 9 10 11 12 12 12 11 10 11 13 15 14 11 9 10 10 8 6 6 7 6 6 9 11 10 8 10
10 12 13 14 16 18 20 22 24 25 25 25 25 24 24 23 21 20 19 18 16 15 16 16 15 13 11 10 10 9 9 8 9 8 6 3 1 1 1 2 3 5 8 11 12 12 11 10 10 11 12 13 13 12 12 12 13 14 15 13 11 10 8 5 4 6 6 4 4 7 10 10 10 11
8 11 12 13 16 19 21 22 22 22 21 22 23 23 21 21 20 18 15 14 14 16 17 16 13 11 10 10 11 10 9 9 8 6 4 3 3 3 1 3 5 6 9 12 14 14 12 12 12 13 14 14 13 12 11 11 11 13 14 14 12 9 6 3 4 6 6 5 4 6 8 10 11 12
Wind_Direction
176 181 188 195 193 190 189 190 197 192 182 176 175 174 168 160 152 128 176 209 199 181 185 182 170 163 149 140 137 135 133 127 121 118 114 109 103 99 90 81 73 65 64 66 66 63 57 51 45 39 35 31 27 24 21 20 18 19 23 27 28 29 28 27 27 27 25 22 20 16 13 8 2 356
163 171 179 186 189 194 197 196 194 188 183 181 180 183 183 174 167 162 168 202 200 187 188 189 181 172 158 149 147 147 145 141 136 130 126 121 113 108 99 88 81 73 66 66 69 67 59 52 45 39 32 24 19 13 12 14 15 14 13 15 17 19 20 19 20 21 20 18 15 12 9 7 4 359
150 156 165 180 190 195 200 199 193 189 188 188 187 189 192 188 184 178 165 166 202 195 191 186 177 170 159 155 158 159 157 156 154 148 143 136 127 124 115 103 92 81 72 70 73 73 64 54 45 38 29 18 11 5 5 10 14 13 9 6 6 8 10 11 12 15 15 15 13 10 8 8 7 4
146 147 146 162 180 186 194 194 188 189 195 194 193 199 201 197 196 189 173 162 188 196 196 189 177 173 170 165 166 168 171 174 174 171 169 160 149 145 136 129 113 93 82 74 77 83 71 57 44 34 23 12 5 0 2 10 15 13 7 2 357 354 358 2 4 7 10 11 10 8 6 7 8 8
144 145 138 137 150 167 182 187 185 188 194 195 198 204 206 204 202 195 182 165 165 188 200 200 188 184 185 181 179 178 180 187 192 191 194 193 183 174 170 170 155 123 101 76 79 93 76 62 45 24 13 6 4 3 8 14 17 13 6 359 350 341 341 347 352 356 1 7 9 7 6 6 7 7
145 143 140 135 134 144 161 173 181 188 193 198 204 206 207 207 207 202 193 176 166 184 200 203 198 195 197 196 193 191 190 195 205 210 213 215 209 201 197 189 177 166 149 96 71 202 128 76 28 13 11 11 11 11 12 12 12 11 6 355 344 339 337 337 341 344 350 1 6 4 5 6 5 5
158 149 144 142 144 146 149 157 167 179 187 196 206 209 209 211 210 207 205 198 185 187 195 201 202 201 204 206 205 207 207 206 215 229 232 232 224 211 203 195 184 180 178 175 225 209 165 45 14 14 19 20 12 5 1 0 8 15 14 7 359 352 345 336 335 337 341 351 356 357 2 6 6 4
171 163 155 152 155 158 158 160 166 172 178 185 196 203 208 212 211 206 206 211 204 195 193 198 201 204 209 213 213 219 223 220 223 236 240 232 220 208 201 198 193 194 198 192 164 128 70 19 15 20 21 8 353 348 347 345 352 2 5 9 9 360 348 338 334 335 338 342 342 345 355 4 6 2
174 174 170 167 169 173 171 169 172 178 180 183 189 194 200 206 206 203 205 211 210 203 199 199 201 206 213 218 220 225 231 229 224 229 234 223 206 197 194 197 203 211 203 175 135 70 24 16 19 13 351 339 337 338 338 335 334 338 341 347 349 345 340 337 339 342 339 334 332 336 346 353 355 354
180 181 182 181 183 191 192 187 186 189 191 193 193 191 191 195 199 202 207 210 211 210 208 204 202 207 214 219 222 226 233 231 222 214 210 200 191 190 194 201 204 202 189 168 122 12 9 11 357 337 328 330 336 338 338 336 336 339 341 342 339 334 332 330 332 339 335 327 325 328 333 334 333 336
194 194 196 197 198 203 207 206 201 199 200 201 202 200 197 197 200 206 211 211 212 216 214 209 207 209 214 217 220 225 228 224 219 211 199 187 184 189 196 197 187 180 176 171 343 353 359 339 325 326 325 329 338 342 344 344 342 344 344 344 340 334 330 325 319 313 308 306 308 310 311 311 312 316
211 211 212 215 218 220 222 221 217 213 206 204 207 208 209 209 208 209 212 212 214 218 217 215 213 212 214 216 220 224 217 211 213 213 205 193 186 186 186 180 176 178 184 243 314 326 328 323 326 328 324 332 342 343 345 346 345 346 345 343 342 338 335 331 324 318 309 303 301 300 300 300 304 309
221 222 225 228 232 234 235 235 234 230 223 217 214 213 214 216 215 214 214 214 215 217 217 216 216 216 217 218 219 219 218 219 218 213 207 198 188 185 183 181 186 198 219 287 315 327 332 333 337 334 329 341 348 341 342 344 344 346 345 342 340 338 335 331 326 321 314 309 305 302 301 303 305 310
231 233 237 239 240 239 239 239 239 238 236 234 230 226 223 219 217 215 214 215 216 217 217 216 214 215 219 220 221 223 228 232 225 212 206 198 187 184 185 186 197 220 255 302 324 341 349 340 337 340 341 347 350 345 346 348 347 346 345 343 341 339 336 331 326 322 316 312 310 307 308 311 312 314
242 242 242 243 243 241 240 241 241 240 241 240 238 237 232 225 220 217 216 216 216 216 218 218 215 216 220 221 221 225 228 227 222 213 207 200 189 185 187 193 207 237 273 307 326 346 3 340 324 326 332 339 348 352 351 349 346 343 342 341 340 339 338 335 331 327 322 319 317 316 316 317 317 317
246 246 245 243 243 244 244 244 243 242 242 243 242 241 239 234 230 227 225 224 223 223 223 220 218 220 222 221 219 220 221 218 214 208 203 199 193 191 195 200 208 236 274 303 324 334 329 312 312 312 319 332 344 349 346 343 339 337 338 338 337 337 334 331 328 325 322 318 314 314 315 315 316 315
245 244 243 243 244 244 244 244 245 244 243 242 240 241 242 240 238 236 236 236 237 238 235 230 229 229 227 227 225 223 220 214 205 198 195 194 193 196 201 201 201 219 263 303 316 295 267 281 298 300 316 333 342 343 339 334 331 332 335 337 337 334 330 326 324 321 319 315 309 307 309 311 311 313
248 246 244 244 245 245 244 243 243 244 243 241 240 240 239 239 239 238 238 240 243 245 246 246 247 246 244 243 239 229 222 217 211 201 194 192 193 193 194 194 197 206 223 310 296 245 234 256 285 297 316 330 335 336 330 323 323 329 334 336 335 334 332 331 328 324 320 315 311 308 310 313 314 314
252 252 251 250 250 249 247 246 244 243 242 241 240 238 237 239 242 243 243 244 244 247 251 252 253 255 254 251 245 231 219 214 211 203 195 193 194 187 181 180 181 186 202 273 272 231 227 256 291 305 317 323 327 328 319 310 315 325 331 334 336 339 343 345 342 336 327 319 316 313 314 318 322 321
252 252 253 253 252 251 250 247 245 244 242 240 238 237 240 245 249 252 253 252 254 261 261 255 256 259 254 247 236 221 208 201 198 195 187 185 189 180 168 166 173 184 221 260 261 242 251 278 301 312 316 320 325 323 308 298 306 321 330 336 341 346 349 349 349 345 335 327 326 323 321 326 331 332
256 255 254 255 254 252 250 248 245 243 242 242 240 240 243 246 250 253 253 252 256 264 261 253 253 252 238 223 210 201 199 200 202 200 188 182 185 180 170 173 184 194 209 221 244 298 292 292 308 317 321 325 328 324 308 296 306 322 332 338 343 347 348 348 349 348 342 340 340 338 336 337 339 340
264 262 260 259 258 254 251 249 248 247 246 246 245 245 244 243 245 245 243 241 242 245 246 245 242 228 208 197 194 193 194 199 204 208 198 190 186 181 180 184 185 189 203 217 266 307 290 293 320 330 330 329 329 327 311 304 315 327 335 338 342 345 346 346 348 350 347 344 342 340 340 341 341 341
269 266 264 262 261 259 254 249 249 251 252 249 247 245 242 239 239 238 238 237 230 227 235 238 226 210 199 193 191 190 187 183 185 188 192 191 187 183 185 186 181 185 201 216 286 317 296 309 334 341 342 334 327 325 314 312 322 331 334 336 339 342 344 345 346 347 346 345 344 342 339 339 341 341
272 269 267 264 263 263 261 255 251 250 252 252 247 240 237 237 237 238 236 231 225 227 230 219 204 195 190 184 179 176 169 166 169 173 178 184 188 191 191 189 192 197 199 213 306 329 320 326 337 341 340 321 301 308 312 315 322 329 332 337 340 340 343 344 343 343 344 346 347 344 341 341 343 343
277 275 274 272 269 268 265 263 260 256 256 257 250 240 238 240 239 238 232 224 226 229 216 199 190 186 179 170 165 163 162 168 175 180 183 186 189 194 190 188 195 192 188 222 312 328 330 335 335 332 326 303 288 301 310 314 319 325 331 336 339 341 344 343 340 343 345 343 343 343 342 343 344 342
278 278 279 279 279 276 272 267 265 261 260 258 251 242 240 238 236 234 230 225 221 212 197 189 184 180 174 168 166 167 171 176 179 181 184 184 184 183 177 181 194 187 180 254 315 324 330 335 331 324 320 305 300 305 308 308 315 323 328 332 337 343 347 346 345 347 347 344 343 343 342 341 339 336
275 275 277 278 279 280 277 272 267 263 259 256 252 245 237 233 233 234 231 223 210 195 189 187 183 179 177 173 171 174 176 176 175 176 175 172 171 169 162 153 136 110 266 304 316 322 328 330 321 318 320 313 308 307 303 305 314 322 326 329 335 342 347 350 350 349 348 347 345 342 339 336 335 333
282 275 273 274 276 279 278 273 268 262 256 254 253 247 240 237 238 236 227 213 200 189 185 184 180 177 178 177 174 174 174 170 167 165 161 158 156 149 133 106 59 29 341 321 320 322 324 319 310 312 317 315 309 304 303 307 315 322 326 329 333 339 346 349 348 346 344 342 339 337 335 333 335 336
300 287 276 273 274 275 276 274 269 261 255 253 252 251 248 242 237 231 216 201 192 186 182 180 176 172 174 177 174 171 167 163 161 158 151 144 137 125 108 84 63 32 358 338 326 321 320 317 314 314 313 313 311 309 310 310 312 318 325 327 329 335 342 345 342 339 336 334 334 335 335 334 336 338
312 301 286 276 274 275 274 272 267 261 257 255 252 251 247 237 228 221 206 192 187 183 180 178 174 171 172 171 167 165 162 158 156 153 147 139 129 117 94 78 71 47 22 2 335 326 318 314 315 314 313 312 311 312 314 310 307 312 321 330 332 335 338 338 336 334 333 334 335 338 339 337 336 339
315 310 296 281 275 273 272 268 262 257 254 253 251 247 238 227 221 213 200 190 185 182 179 177 172 168 166 163 161 161 159 153 147 143 141 137 128 115 85 75 74 60 39 4 337 330 321 313 313 315 319 322 318 312 310 304 302 309 323 337 338 335 333 334 334 334 338 337 337 339 339 336 337 339
313 311 302 286 275 271 267 261 254 250 249 249 246 237 225 216 210 200 190 185 184 181 177 172 166 162 161 161 161 160 155 145 135 126 117 116 119 109 75 65 67 48 11 350 346 346 342 333 328 322 325 330 324 315 309 304 306 320 332 338 337 333 332 334 334 338 342 340 337 339 339 339 343 345
307 306 300 287 275 267 258 247 240 238 237 236 231 220 208 202 196 188 182 180 179 176 173 167 163 160 160 160 160 156 146 132 122 116 111 111 112 93 62 58 53 22 358 356 4 13 4 348 342 334 331 331 327 322 317 314 326 339 338 335 334 332 332 335 335 338 344 344 340 340 341 342 347 350
298 296 291 281 267 251 238 229 224 223 221 214 206 198 194 190 185 180 178 177 174 172 169 165 162 160 159 158 156 149 137 127 122 122 120 111 99 76 60 54 34 13 7 9 11 5 351 346 344 340 333 328 329 336 342 334 335 339 337 335 334 330 330 334 335 336 342 344 342 341 341 341 344 349
285 282 277 268 257 240 225 218 212 210 211 203 191 183 180 178 177 175 174 174 171 167 163 161 161 161 159 154 149 142 133 130 130 132 127 110 92 73 53 34 24 24 20 9 3 358 351 349 350 349 345 341 342 349 0 354 341 335 332 333 334 330 329 332 333 332 338 344 345 343 340 337 340 347
272 271 264 254 245 230 217 213 208 203 205 205 192 178 171 170 172 172 170 168 165 161 158 158 158 157 152 146 141 136 132 132 136 136 126 108 91 61 34 30 37 36 11 358 360 360 354 353 358 358 353 349 348 343 338 340 340 334 329 330 332 331 330 329 328 332 341 349 351 347 339 334 339 350
266 263 253 244 237 225 215 210 204 197 199 203 190 171 160 158 160 161 159 158 157 155 153 153 150 147 146 143 139 134 131 129 127 124 118 106 75 41 34 42 44 13 356 360 6 5 1 2 5 2 351 342 338 314 320 330 337 340 337 331 327 327 328 327 327 337 349 352 350 346 340 337 346 1
265 260 249 239 233 225 216 209 202 198 195 183 166 155 148 145 146 148 149 149 149 148 147 146 144 144 145 141 134 130 127 120 115 120 122 100 62 52 48 37 14 357 356 5 12 13 11 9 7 1 348 330 308 301 318 324 329 335 339 333 322 320 328 331 331 338 347 350 348 346 345 349 5 12
264 261 253 244 236 226 217 210 202 193 185 176 166 158 154 148 145 144 144 142 141 140 140 141 141 141 140 136 130 126 124 127 139 146 139 109 84 75 49 9 1 357 356 3 13 18 18 11 3 353 341 325 312 310 312 310 312 322 334 336 319 317 329 334 332 336 344 348 348 349 354 5 21 13
263 259 254 248 240 228 215 207 197 183 176 173 169 162 157 154 151 149 146 141 138 136 138 140 142 144 144 143 137 131 132 141 151 150 135 119 109 92 45 6 1 357 356 2 9 12 10 6 358 348 339 332 324 320 318 312 312 322 337 353 332 325 332 336 333 335 344 347 347 352 3 13 10 6
262 254 248 243 237 229 214 200 189 179 175 174 172 167 162 159 157 153 147 141 139 138 140 145 149 151 149 145 141 140 144 149 152 149 140 136 138 142 22 6 5 3 5 5 3 1 1 360 356 351 345 344 344 338 330 321 319 324 336 356 344 336 339 340 337 338 343 347 350 358 7 10 3 1
265 252 244 236 229 223 212 196 184 178 174 171 168 165 162 159 154 149 145 144 143 143 144 150 155 153 148 144 142 143 147 148 146 147 148 148 154 182 351 30 31 11 4 1 356 355 356 355 351 348 347 352 357 348 329 315 314 318 324 334 339 340 341 337 336 342 345 348 1 11 10 9 4 357
267 249 239 231 221 213 202 189 178 173 169 166 164 162 159 153 149 148 148 147 144 144 148 154 155 152 147 143 143 144 143 141 141 147 155 159 164 174 95 64 42 4 3 5 1 357 358 358 354 349 350 360 3 348 325 315 315 315 315 314 322 338 342 332 330 345 348 348 9 20 17 13 7 357
258 234 223 216 205 194 184 175 167 164 162 160 158 156 154 150 149 149 148 143 141 148 155 157 156 153 148 146 148 146 139 135 141 152 160 162 153 148 109 57 30 11 8 10 9 6 6 9 7 0 359 3 3 350 332 323 319 315 312 310 318 334 340 329 333 350 347 336 353 9 9 5 359 357
238 213 201 194 187 178 169 162 157 155 155 156 156 156 155 154 152 148 144 143 150 157 160 159 157 154 154 156 153 147 140 141 150 161 165 156 152 151 101 40 34 24 11 7 9 11 12 14 13 7 3 3 2 355 344 333 321 314 313 314 322 334 335 327 344 347 335 320 323 338 348 353 352 354